Year,Month,Day,Hour,Minute,Value (Times are PST for temperature in C)
2010,07,14,06,35,12.10
2010,07,14,06,36,12.10
2010,07,14,06,37,12.20
2010,07,14,06,38,12.20
2010,07,14,06,39,12.20
2010,07,14,06,40,12.30
2010,07,14,06,41,12.30
2010,07,14,06,42,12.30
2010,07,14,06,43,12.40
2010,07,14,06,44,12.40
2010,07,14,06,45,12.50
2010,07,14,06,46,12.60
2010,07,14,06,47,12.70
2010,07,14,06,48,12.70
2010,07,14,06,49,12.80
2010,07,14,06,50,12.90
2010,07,14,06,51,13.00
2010,07,14,06,52,13.00
2010,07,14,06,53,13.10
2010,07,14,06,54,13.20
2010,07,14,06,55,13.20
2010,07,14,06,56,13.30
2010,07,14,06,57,13.30
2010,07,14,06,58,13.40
2010,07,14,06,59,13.40
2010,07,14,07,00,13.40
2010,07,14,07,01,13.50
2010,07,14,07,02,13.50
2010,07,14,07,03,13.60
2010,07,14,07,04,13.60
2010,07,14,07,05,13.60
2010,07,14,07,06,13.70
2010,07,14,07,07,13.70
2010,07,14,07,08,13.70
2010,07,14,07,09,13.70
2010,07,14,07,10,13.80
2010,07,14,07,11,13.80
2010,07,14,07,12,13.90
2010,07,14,07,13,13.90
2010,07,14,07,14,13.90
2010,07,14,07,15,14.00
2010,07,14,07,16,14.00
2010,07,14,07,17,14.10
2010,07,14,07,18,14.10
2010,07,14,07,19,14.20
2010,07,14,07,20,14.20
2010,07,14,07,21,14.30
2010,07,14,07,22,14.30
2010,07,14,07,23,14.40
2010,07,14,07,24,14.40
2010,07,14,07,25,14.50
2010,07,14,07,26,14.50
2010,07,14,07,27,14.60
2010,07,14,07,28,14.60
2010,07,14,07,29,14.60
2010,07,14,07,30,14.70
2010,07,14,07,31,14.70
2010,07,14,07,32,14.80
2010,07,14,07,33,14.80
2010,07,14,07,34,14.80
2010,07,14,07,35,14.90
2010,07,14,07,36,14.90
2010,07,14,07,37,15.00
2010,07,14,07,38,15.00
2010,07,14,07,39,15.00
2010,07,14,07,40,15.00
2010,07,14,07,41,15.00
2010,07,14,07,42,15.00
2010,07,14,07,43,15.00
2010,07,14,07,44,15.00
2010,07,14,07,45,15.00
2010,07,14,07,46,15.00
2010,07,14,07,47,15.00
2010,07,14,07,48,15.00
2010,07,14,07,49,15.00
2010,07,14,07,50,15.00
2010,07,14,07,51,15.00
2010,07,14,07,52,15.00
2010,07,14,07,53,15.00
2010,07,14,07,54,15.00
2010,07,14,07,55,15.00
2010,07,14,07,56,15.00
2010,07,14,07,57,15.00
2010,07,14,07,58,15.00
2010,07,14,07,59,15.00
2010,07,14,08,00,15.00
2010,07,14,08,01,15.00
2010,07,14,08,02,15.10
2010,07,14,08,03,15.10
2010,07,14,08,04,15.20
2010,07,14,08,05,15.20
2010,07,14,08,06,15.20
2010,07,14,08,07,15.20
2010,07,14,08,08,15.30
2010,07,14,08,09,15.30
2010,07,14,08,10,15.30
2010,07,14,08,11,15.30
2010,07,14,08,12,15.40
2010,07,14,08,13,15.40
2010,07,14,08,14,15.40
2010,07,14,08,15,15.40
2010,07,14,08,16,15.40
2010,07,14,08,17,15.50
2010,07,14,08,18,15.50
2010,07,14,08,19,15.60
2010,07,14,08,20,15.60
2010,07,14,08,21,15.60
2010,07,14,08,22,15.70
2010,07,14,08,23,15.70
2010,07,14,08,24,15.80
2010,07,14,08,25,15.80
2010,07,14,08,26,15.80
2010,07,14,08,27,15.90
2010,07,14,08,28,16.00
2010,07,14,08,29,16.10
2010,07,14,08,30,16.10
2010,07,14,08,31,16.20
2010,07,14,08,32,16.20
2010,07,14,08,33,16.30
2010,07,14,08,34,16.30
2010,07,14,08,35,16.30
2010,07,14,08,36,16.30
2010,07,14,08,37,16.20
2010,07,14,08,38,16.20
2010,07,14,08,39,16.20
2010,07,14,08,40,16.20
2010,07,14,08,41,16.20
2010,07,14,08,42,16.20
2010,07,14,08,43,16.20
2010,07,14,08,44,16.20
2010,07,14,08,45,16.20
2010,07,14,08,46,16.20
2010,07,14,08,47,16.20
2010,07,14,08,48,16.20
2010,07,14,08,49,16.20
2010,07,14,08,50,16.20
2010,07,14,08,51,16.20
2010,07,14,08,52,16.20
2010,07,14,08,53,16.30
2010,07,14,08,54,16.30
2010,07,14,08,55,16.40
2010,07,14,08,56,16.40
2010,07,14,08,57,16.50
2010,07,14,08,58,16.50
2010,07,14,08,59,16.60
2010,07,14,09,00,16.60
2010,07,14,09,01,16.60
2010,07,14,09,02,16.60
2010,07,14,09,03,16.70
2010,07,14,09,04,16.70
2010,07,14,09,05,16.70
2010,07,14,09,06,16.80
2010,07,14,09,07,16.80
2010,07,14,09,08,16.80
2010,07,14,09,09,16.90
2010,07,14,09,10,16.90
2010,07,14,09,11,17.00
2010,07,14,09,12,17.00
2010,07,14,09,13,17.10
2010,07,14,09,14,17.10
2010,07,14,09,15,17.10
2010,07,14,09,16,17.20
2010,07,14,09,17,17.20
2010,07,14,09,18,17.20
2010,07,14,09,19,17.20
2010,07,14,09,20,17.30
2010,07,14,09,21,17.30
2010,07,14,09,22,17.30
2010,07,14,09,23,17.40
2010,07,14,09,24,17.40
2010,07,14,09,25,17.50
2010,07,14,09,26,17.60
2010,07,14,09,27,17.60
2010,07,14,09,28,17.70
2010,07,14,09,29,17.70
2010,07,14,09,30,17.70
2010,07,14,09,31,17.80
2010,07,14,09,32,17.80
2010,07,14,09,33,17.80
2010,07,14,09,34,17.80
2010,07,14,09,35,17.80
2010,07,14,09,36,17.80
2010,07,14,09,37,17.90
2010,07,14,09,38,17.90
2010,07,14,09,39,17.90
2010,07,14,09,40,17.80
2010,07,14,09,41,17.80
2010,07,14,09,42,17.80
2010,07,14,09,43,17.80
2010,07,14,09,44,17.80
2010,07,14,09,45,17.90
2010,07,14,09,46,18.00
2010,07,14,09,47,18.00
2010,07,14,09,48,18.10
2010,07,14,09,49,18.10
2010,07,14,09,50,18.10
2010,07,14,09,51,18.20
2010,07,14,09,52,18.20
2010,07,14,09,53,18.20
2010,07,14,09,54,18.30
2010,07,14,09,55,18.30
2010,07,14,09,56,18.40
2010,07,14,09,57,18.40
2010,07,14,09,58,18.40
2010,07,14,09,59,18.50
2010,07,14,10,00,18.50
2010,07,14,10,01,18.40
2010,07,14,10,02,18.40
2010,07,14,10,03,18.30
2010,07,14,10,04,18.30
2010,07,14,10,05,18.20
2010,07,14,10,06,18.20
2010,07,14,10,07,18.20
2010,07,14,10,08,18.10
2010,07,14,10,09,18.10
2010,07,14,10,10,18.10
2010,07,14,10,11,18.10
2010,07,14,10,12,18.10
2010,07,14,10,13,18.10
2010,07,14,10,14,18.10
2010,07,14,10,15,18.10
2010,07,14,10,16,18.10
2010,07,14,10,17,18.20
2010,07,14,10,18,18.20
2010,07,14,10,19,18.20
2010,07,14,10,20,18.20
2010,07,14,10,21,18.20
2010,07,14,10,22,18.20
2010,07,14,10,23,18.20
2010,07,14,10,24,18.30
2010,07,14,10,25,18.30
2010,07,14,10,26,18.30
2010,07,14,10,27,18.30
2010,07,14,10,28,18.30
2010,07,14,10,29,18.30
2010,07,14,10,30,18.30
2010,07,14,10,31,18.40
2010,07,14,10,32,18.40
2010,07,14,10,33,18.40
2010,07,14,10,34,18.30
2010,07,14,10,35,18.30
2010,07,14,10,36,18.30
2010,07,14,10,37,18.20
2010,07,14,10,38,18.20
2010,07,14,10,39,18.20
2010,07,14,10,40,18.20
2010,07,14,10,41,18.20
2010,07,14,10,42,18.20
2010,07,14,10,43,18.20
2010,07,14,10,44,18.20
2010,07,14,10,45,18.10
2010,07,14,10,46,18.10
2010,07,14,10,47,18.20
2010,07,14,10,48,18.20
2010,07,14,10,49,18.20
2010,07,14,10,50,18.20
2010,07,14,10,51,18.10
2010,07,14,10,52,18.10
2010,07,14,10,53,18.00
2010,07,14,10,54,17.90
2010,07,14,10,55,17.90
2010,07,14,10,56,17.90
2010,07,14,10,57,17.80
2010,07,14,10,58,17.80
2010,07,14,10,59,17.90
2010,07,14,11,00,17.90
2010,07,14,11,01,17.90
2010,07,14,11,02,18.00
2010,07,14,11,03,18.10
2010,07,14,11,04,18.10
2010,07,14,11,05,18.10
2010,07,14,11,06,18.10
2010,07,14,11,07,18.20
2010,07,14,11,08,18.20
2010,07,14,11,09,18.20
2010,07,14,11,10,18.20
2010,07,14,11,11,18.20
2010,07,14,11,12,18.30
2010,07,14,11,13,18.20
2010,07,14,11,14,18.30
2010,07,14,11,15,18.30
2010,07,14,11,16,18.30
2010,07,14,11,17,18.30
2010,07,14,11,18,18.30
2010,07,14,11,19,18.30
2010,07,14,11,20,18.20
2010,07,14,11,21,18.20
2010,07,14,11,22,18.30
2010,07,14,11,23,18.30
2010,07,14,11,24,18.40
2010,07,14,11,25,18.40
2010,07,14,11,26,18.40
2010,07,14,11,27,18.50
2010,07,14,11,28,18.50
2010,07,14,11,29,18.60
2010,07,14,11,30,18.60
2010,07,14,11,31,18.70
2010,07,14,11,32,18.60
2010,07,14,11,33,18.70
2010,07,14,11,34,18.70
2010,07,14,11,35,18.80
2010,07,14,11,36,18.90
2010,07,14,11,37,19.00
2010,07,14,11,38,19.10
2010,07,14,11,39,19.10
2010,07,14,11,40,19.20
2010,07,14,11,41,19.10
2010,07,14,11,42,19.10
2010,07,14,11,43,19.10
2010,07,14,11,44,19.00
2010,07,14,11,45,18.90
2010,07,14,11,46,18.90
2010,07,14,11,47,19.00
2010,07,14,11,48,19.00
2010,07,14,11,49,19.00
2010,07,14,11,50,19.10
2010,07,14,11,51,19.10
2010,07,14,11,52,19.00
2010,07,14,11,53,19.00
2010,07,14,11,54,18.90
2010,07,14,11,55,18.80
2010,07,14,11,56,18.80
2010,07,14,11,57,18.80
2010,07,14,11,58,18.80
2010,07,14,11,59,18.80
2010,07,14,12,00,18.80
2010,07,14,12,01,18.80
2010,07,14,12,02,18.80
2010,07,14,12,03,18.90
2010,07,14,12,04,19.00
2010,07,14,12,05,19.10
2010,07,14,12,13,19.50
2010,07,14,12,14,19.60
2010,07,14,12,15,19.60
2010,07,14,12,16,19.60
2010,07,14,12,17,19.60
2010,07,14,12,18,19.60
2010,07,14,12,19,19.60
2010,07,14,12,20,19.60
2010,07,14,12,21,19.50
2010,07,14,12,22,19.50
2010,07,14,12,23,19.50
2010,07,14,12,24,19.40
2010,07,14,12,25,19.40
2010,07,14,12,26,19.40
2010,07,14,12,27,19.50
2010,07,14,12,28,19.60
2010,07,14,12,29,19.70
2010,07,14,12,30,19.90
2010,07,14,12,31,20.00
2010,07,14,12,32,20.10
2010,07,14,12,33,20.10
2010,07,14,12,34,20.10
2010,07,14,12,35,20.20
2010,07,14,12,36,20.30
2010,07,14,12,37,20.30
2010,07,14,12,38,20.30
2010,07,14,12,39,20.20
2010,07,14,12,40,20.20
2010,07,14,12,41,20.20
2010,07,14,12,42,20.20
2010,07,14,12,43,20.20
2010,07,14,12,44,20.30
2010,07,14,12,45,20.30
2010,07,14,12,46,20.30
2010,07,14,12,47,20.30
2010,07,14,12,48,20.40
2010,07,14,12,49,20.50
2010,07,14,12,50,20.60
2010,07,14,12,51,20.50
2010,07,14,12,52,20.40
2010,07,14,12,53,20.40
2010,07,14,12,54,20.40
2010,07,14,12,55,20.50
2010,07,14,12,56,20.50
2010,07,14,12,57,20.60
2010,07,14,12,58,20.60
2010,07,14,12,59,20.60
2010,07,14,13,00,20.60
2010,07,14,13,01,20.60
2010,07,14,13,02,20.60
2010,07,14,13,03,20.60
2010,07,14,13,04,20.60
2010,07,14,13,05,20.60
2010,07,14,13,06,20.60
